CW3467 Weather Reports


Display with metric or nautical units.
time (UTC)temp
F
wind
direction
speed
MPH
gust
MPH
rain 1hr
in
rain 24hr
in
rain mn
in
humidity
%
barometer
mb
20260510154504 67 289 2.0 8.0 0.00 0.09 0.00 54 1010.2
20260510154004 67 267 1.0 4.0 0.00 0.09 0.00 49 1010.2
20260510153504 67 297 1.0 4.0 0.00 0.09 0.00 50 1010.2
20260510153004 68 302 1.0 4.0 0.00 0.09 0.00 49 1010.3
20260510152504 69 324 2.0 8.0 0.00 0.09 0.00 49 1010.4
20260510152004 69 22 2.0 8.0 0.00 0.09 0.00 49 1010.2
20260510151504 69 309 2.0 7.0 0.00 0.09 0.00 47 1010.3
20260510151004 69 284 2.0 7.0 0.00 0.09 0.00 46 1010.2
20260510150504 69 285 2.0 6.0 0.00 0.09 0.00 48 1010.5
20260510150004 72 299 2.0 9.0 0.00 0.09 0.00 45 1010.3
20260510145504 71 295 2.0 9.0 0.00 0.09 0.00 47 1010.4
20260510145025 71 323 2.0 9.0 0.00 0.09 0.00 46 1010.3
20260510144504 70 284 2.0 7.0 0.00 0.09 0.00 49 1010.7
20260510144004 71 265 2.0 7.0 0.00 0.09 0.00 49 1010.5
20260510143504 71 354 2.0 6.0 0.00 0.09 0.00 48 1010.7
20260510142004 70 344 2.0 9.0 0.00 0.09 0.00 50 1011.2
20260510141526 69 256 2.0 8.0 0.00 0.09 0.00 49 1011.5
20260510141004 67 172 2.0 7.0 0.00 0.09 0.00 51 1011.4
20260510140504 68 327 2.0 7.0 0.00 0.09 0.00 49 1011.3
20260510135504 71 309 2.0 7.0 0.00 0.09 0.00 51 1011.4
20260510135004 70 295 2.0 7.0 0.00 0.09 0.00 49 1011.3
20260510134525 68 310 2.0 6.0 0.00 0.09 0.00 46 1011.5
20260510134004 70 304 1.0 4.0 0.00 0.09 0.00 50 1011.4
20260510133525 68 324 2.0 6.0 0.00 0.09 0.00 50 1011.4
20260510132525 69 292 2.0 6.0 0.00 0.09 0.00 52 1011.7
20260510132004 68 289 3.0 7.0 0.00 0.09 0.00 54 1011.7
20260510131525 67 299 3.0 7.0 0.00 0.09 0.00 53 1011.6
20260510131025 68 299 3.0 7.0 0.00 0.09 0.00 52 1011.7
20260510130525 68 301 2.0 7.0 0.00 0.09 0.00 50 1011.7
20260510130004 69 315 3.0 7.0 0.00 0.09 0.00 52 1011.9
20260510125510 68 319 3.0 8.0 0.00 0.09 0.00 52 1011.9
20260510125004 68 298 3.0 10.0 0.00 0.09 0.00 54 1011.9
20260510124504 67 321 3.0 10.0 0.00 0.09 0.00 54 1011.9
20260510124040 67 15 3.0 14.0 0.00 0.09 0.00 59 1012.1
20260510123529 65 334 4.0 14.0 0.00 0.09 0.00 55 1012.3
20260510122504 68 295 4.0 16.0 0.00 0.09 0.00 53 1012.5
20260510122004 67 321 4.0 16.0 0.00 0.09 0.00 57 1012.4
20260510121504 68 338 4.0 15.0 0.00 0.09 0.00 50 1012.2
20260510121004 68 325 3.0 10.0 0.00 0.09 0.00 58 1012.6
20260510120504 68 302 4.0 13.0 0.00 0.09 0.00 55 1012.5
20260510120004 67 327 6.0 16.0 0.00 0.09 0.00 57 1012.6
20260510115504 66 330 5.0 16.0 0.00 0.09 0.00 53 1012.4
20260510115004 67 290 3.0 16.0 0.00 0.09 0.00 53 1012.9
20260510114504 67 308 4.0 13.0 0.00 0.09 0.00 59 1012.9
20260510114004 66 339 4.0 13.0 0.00 0.09 0.00 61 1013.1
20260510113504 67 320 3.0 11.0 0.00 0.09 0.00 59 1013.0
20260510113004 67 286 3.0 10.0 0.00 0.09 0.00 62 1012.9
20260510112503 66 314 4.0 13.0 0.00 0.09 0.00 62 1013.0
20260510112004 66 333 4.0 13.0 0.00 0.09 0.00 62 1013.0
20260510111504 66 310 2.0 8.0 0.00 0.09 0.00 67 1013.1
20260510111025 66 301 2.0 7.0 0.00 0.09 0.00 69 1013.1
20260510110504 65 310 3.0 9.0 0.00 0.09 0.00 67 1013.2
20260510110005 63 322 3.0 9.0 0.00 0.09 0.00 67 1013.3
20260510105503 61 321 3.0 8.0 0.00 0.09 0.00 70 1013.2
20260510105025 62 301 3.0 8.0 0.00 0.09 0.00 70 1013.4
20260510104503 62 289 2.0 8.0 0.00 0.09 0.00 68 1013.4
20260510104004 63 299 2.0 10.0 0.00 0.09 0.00 69 1013.3
20260510103525 63 294 2.0 10.0 0.00 0.09 0.00 69 1013.4
20260510103004 63 263 1.0 7.0 0.00 0.09 0.00 71 1013.5
20260510102504 62 276 1.0 7.0 0.00 0.09 0.00 73 1013.4
20260510102004 61 312 1.0 4.0 0.00 0.09 0.00 76 1013.4
20260510101504 61 247 1.0 3.0 0.00 0.09 0.00 76 1013.5
20260510101024 62 251 1.0 3.0 0.00 0.09 0.00 78 1013.5
20260510100504 62 262 1.0 6.0 0.00 0.09 0.00 75 1013.5
20260510100005 62 335 1.0 6.0 0.00 0.09 0.00 75 1013.5
20260510095504 61 31 1.0 3.0 0.00 0.09 0.00 76 1013.5
20260510095025 62 305 1.0 4.0 0.00 0.09 0.00 78 1013.4
20260510094504 61 264 1.0 4.0 0.00 0.09 0.00 78 1013.5
20260510094004 61 229 1.0 4.0 0.00 0.09 0.00 80 1013.6
20260510093525 60 119 1.0 3.0 0.00 0.09 0.00 80 1013.6
20260510093004 60 263 1.0 3.0 0.00 0.09 0.00 82 1013.6
20260510092504 60 260 1.0 4.0 0.00 0.09 0.00 84 1013.5
20260510092025 59 260 1.0 4.0 0.00 0.09 0.00 83 1013.7
20260510091504 59 186 1.0 3.0 0.00 0.09 0.00 88 1013.7
20260510091003 59 207 1.0 3.0 0.00 0.09 0.00 86 1013.8
20260510090503 59 223 1.0 3.0 0.00 0.09 0.00 87 1013.8
20260510090004 58 250 1.0 3.0 0.00 0.09 0.00 89 1013.6
20260510085504 57 2 1.0 4.0 0.00 0.09 0.00 91 1013.7
20260510085004 57 39 1.0 4.0 0.00 0.09 0.00 91 1013.8
20260510084503 57 259 0.0 2.0 0.00 0.09 0.00 92 1013.7
20260510084003 56 250 0.0 3.0 0.00 0.09 0.00 94 1013.7
20260510083504 56 251 0.0 3.0 0.00 0.09 0.00 100 1014.0
20260510083025 56 278 0.0 3.0 0.00 0.09 0.00 100 1013.7
20260510082524 56 306 0.0 3.0 0.00 0.09 0.00 100 1013.6
20260510082004 55 255 0.0 2.0 0.00 0.09 0.00 100 1013.6
20260510081503 54 246 0.0 2.0 0.00 0.09 0.00 100 1013.6
20260510081004 53 247 0.0 2.0 0.00 0.09 0.00 100 1013.8
20260510080504 53 248 0.0 2.0 0.00 0.09 0.00 100 1013.8
20260510080004 53 293 0.0 2.0 0.00 0.09 0.00 100 1013.6
20260510075503 53 301 0.0 2.0 0.00 0.09 0.00 100 1013.9
20260510075025 53 256 0.0 2.0 0.00 0.09 0.00 100 1013.7
20260510074504 53 246 0.0 1.0 0.00 0.09 0.00 100 1013.6
20260510074004 53 245 0.0 2.0 0.00 0.09 0.00 100 1013.6
20260510073503 53 245 0.0 2.0 0.00 0.09 0.00 100 1013.6
20260510073004 53 239 0.0 1.0 0.00 0.09 0.00 100 1013.5
20260510072524 53 250 0.0 1.0 0.00 0.09 0.00 100 1013.4
20260510072004 52 35 0.0 2.0 0.00 0.09 0.00 100 1013.4
20260510071504 52 38 1.0 3.0 0.00 0.09 0.00 100 1013.4
20260510071024 52 286 1.0 3.0 0.00 0.09 0.00 100 1013.5
20260510070503 52 245 1.0 2.0 0.00 0.09 0.00 100 1013.3
20260510070004 52 257 1.0 3.0 0.00 0.09 0.00 100 1013.4
20260510065524 52 265 1.0 3.0 0.00 0.09 0.00 100 1013.1
20260510065003 52 270 1.0 3.0 0.00 0.09 0.00 100 1013.1
20260510064503 52 261 1.0 2.0 0.00 0.09 0.00 100 1013.2
20260510064003 51 252 0.0 2.0 0.00 0.09 0.00 100 1013.1
20260510063503 51 243 0.0 1.0 0.00 0.09 0.00 100 1013.3
20260510063024 51 257 0.0 1.0 0.00 0.09 0.00 100 1013.2
20260510062525 51 263 0.0 1.0 0.00 0.09 0.00 100 1013.1
20260510062004 51 230 0.0 1.0 0.00 0.09 0.00 100 1013.2
20260510061504 51 0 0.0 0.0 0.00 0.09 0.00 100 1012.9
20260510061004 51 290 0.0 1.0 0.00 0.09 0.00 100 1013.1
20260510060503 51 336 0.0 1.0 0.00 0.09 0.00 100 1013.0
20260510060024 51 336 0.0 1.0 0.00 0.09 0.00 100 1013.1
20260510055503 51 251 0.0 1.0 0.00 0.09 0.00 100 1012.9
20260510055003 51 248 0.0 1.0 0.00 0.09 0.00 100 1013.0
20260510054504 51 251 0.0 2.0 0.00 0.09 0.00 100 1013.1
20260510054003 51 252 0.0 2.0 0.00 0.09 0.00 100 1013.0
20260510053503 51 123 0.0 2.0 0.00 0.09 0.00 100 1013.1
20260510053024 51 160 0.0 2.0 0.00 0.09 0.00 100 1013.1
20260510052524 52 243 0.0 1.0 0.00 0.09 0.00 100 1012.9
20260510052024 52 253 0.0 1.0 0.00 0.09 0.00 100 1013.1
20260510051503 52 0 0.0 0.0 0.00 0.09 0.00 100 1012.9
20260510051024 52 245 0.0 1.0 0.00 0.09 0.00 100 1012.7
20260510050503 51 243 0.0 1.0 0.00 0.09 0.00 100 1012.9
20260510050004 51 241 0.0 1.0 0.00 0.09 0.00 100 1012.7
20260510045503 51 0 0.0 0.0 0.00 0.09 0.00 100 1013.0
20260510045024 52 0 0.0 0.0 0.00 0.09 0.00 100 1012.9
20260510044524 52 0 0.0 0.0 0.00 0.09 0.00 100 1013.1
20260510044004 52 192 0.0 1.0 0.00 0.09 0.00 100 1013.0
20260510043504 52 192 0.0 1.0 0.00 0.09 0.00 100 1013.0
20260510043003 51 227 0.0 1.0 0.00 0.09 0.00 100 1012.9
20260510042503 52 229 0.0 1.0 0.00 0.09 0.00 100 1012.9
20260510042003 52 235 0.0 1.0 0.00 0.09 0.00 100 1013.0
20260510041503 52 0 0.0 0.0 0.00 0.09 0.00 100 1012.5
20260510041003 51 0 0.0 0.0 0.00 0.09 0.00 100 1012.6
20260510040503 51 0 0.0 0.0 0.00 0.09 0.00 100 1012.9
20260510040004 51 249 0.0 1.0 0.00 0.09 0.00 100 1013.1
20260510035524 51 250 0.0 1.0 0.00 0.09 0.00 100 1012.9
20260510035003 51 253 0.0 1.0 0.00 0.09 0.00 100 1013.1
20260510034503 51 249 0.0 1.0 0.00 0.09 0.00 100 1013.1
20260510034003 51 247 1.0 2.0 0.00 0.09 0.00 100 1013.1
20260510033503 51 256 1.0 3.0 0.00 0.09 0.00 100 1013.2
20260510033024 51 259 1.0 3.0 0.00 0.09 0.00 100 1013.2
20260510032524 52 252 0.0 3.0 0.00 0.09 0.00 100 1013.0
20260510032004 52 0 0.0 0.0 0.00 0.09 0.00 100 1013.2
20260510031503 52 191 0.0 1.0 0.00 0.09 0.00 100 1013.0
20260510031003 52 225 0.0 1.0 0.00 0.09 0.00 100 1013.3
20260510030503 52 241 0.0 1.0 0.00 0.09 0.00 100 1013.1
20260510030004 52 233 0.0 1.0 0.00 0.09 0.00 100 1013.2
20260510025503 52 171 0.0 1.0 0.00 0.09 0.00 100 1013.1
20260510025003 52 195 0.0 1.0 0.00 0.09 0.00 100 1013.1
20260510024503 52 221 0.0 1.0 0.00 0.09 0.00 100 1013.1
20260510024024 52 185 0.0 1.0 0.00 0.09 0.00 100 1013.1
20260510023524 52 185 0.0 1.0 0.00 0.09 0.00 100 1013.0
20260510023024 52 0 0.0 0.0 0.00 0.09 0.00 100 1013.3
20260510022503 52 0 0.0 0.0 0.00 0.09 0.00 100 1013.2
20260510022003 52 215 0.0 1.0 0.00 0.09 0.00 100 1013.2
20260510021503 52 215 0.0 1.0 0.00 0.09 0.00 100 1013.2
20260510021003 52 0 0.0 0.0 0.00 0.09 0.00 100 1013.5
20260510020503 52 233 0.0 1.0 0.00 0.09 0.00 100 1013.4
20260510020003 52 243 0.0 1.0 0.00 0.09 0.00 100 1013.5
20260510015503 52 247 1.0 1.0 0.00 0.09 0.00 100 1013.8
20260510015003 52 251 1.0 2.0 0.00 0.09 0.00 100 1013.6
20260510014503 52 250 0.0 2.0 0.00 0.09 0.00 100 1013.8
20260510014003 52 244 0.0 1.0 0.00 0.09 0.00 100 1013.6
20260510013503 53 244 0.0 1.0 0.00 0.09 0.00 100 1013.5
20260510013003 53 0 0.0 0.0 0.00 0.09 0.00 100 1013.5
20260510012503 53 0 0.0 0.0 0.00 0.09 0.00 100 1013.4
20260510012003 52 0 0.0 0.0 0.00 0.09 0.00 100 1013.5
20260510011503 52 0 0.0 0.0 0.00 0.09 0.00 100 1013.5
20260510011003 52 211 0.0 1.0 0.00 0.09 0.00 100 1013.4
20260510010524 52 213 0.0 1.0 0.00 0.09 0.00 100 1013.6
20260510010025 52 215 0.0 1.0 0.00 0.09 0.00 100 1013.3
20260510005504 52 0 0.0 0.0 0.00 0.09 0.00 100 1013.7
20260510005004 52 218 0.0 1.0 0.00 0.09 0.00 100 1013.6
20260510004504 52 218 0.0 1.0 0.00 0.09 0.00 100 1013.5
20260510004004 52 0 0.0 0.0 0.00 0.09 0.00 100 1013.5
20260510003525 52 0 0.0 0.0 0.00 0.09 0.00 100 1013.5
20260510003004 52 0 0.0 0.0 0.00 0.09 0.00 100 1013.3
20260510002504 52 223 0.0 1.0 0.00 0.09 0.00 100 1013.5
20260510002025 53 223 0.0 1.0 0.00 0.09 0.00 100 1013.1
20260510001504 53 0 0.0 0.0 0.00 0.09 0.00 100 1013.4
20260510001004 53 0 0.0 0.0 0.00 0.09 0.00 100 1013.4
20260510000504 53 0 0.0 0.0 0.00 0.09 0.00 100 1013.5
20260510000005 53 0 0.0 0.0 0.00 0.09 0.00 100 1013.7
20260509235504 53 0 0.0 0.0 0.00 0.09 0.09 100 1013.7
20260509235025 53 0 0.0 0.0 0.00 0.09 0.09 100 1013.9
20260509234504 53 235 0.0 1.0 0.00 0.09 0.09 100 1014.0
20260509234005 53 242 0.0 1.0 0.00 0.09 0.09 100 1013.9
20260509233504 53 244 0.0 1.0 0.00 0.09 0.09 100 1013.9
20260509233004 53 0 0.0 0.0 0.00 0.09 0.09 100 1014.0
20260509232504 54 0 0.0 0.0 0.00 0.09 0.09 100 1014.0
20260509232004 54 0 0.0 0.0 0.00 0.09 0.09 100 1014.0
20260509231525 54 0 0.0 0.0 0.00 0.09 0.09 100 1014.1
20260509231005 54 0 0.0 0.0 0.00 0.09 0.09 100 1014.0
20260509230504 54 0 0.0 0.0 0.00 0.09 0.09 100 1014.1
20260509230004 54 0 0.0 0.0 0.00 0.09 0.09 100 1013.9
20260509225504 54 0 0.0 0.0 0.00 0.09 0.09 100 1014.0
20260509225025 54 0 0.0 0.0 0.00 0.09 0.09 100 1014.1
20260509224504 54 0 0.0 0.0 0.00 0.09 0.09 100 1014.1
20260509224004 54 0 0.0 0.0 0.00 0.09 0.09 100 1014.2
20260509223504 54 242 0.0 1.0 0.00 0.09 0.09 100 1014.2
20260509223025 54 243 0.0 2.0 0.00 0.09 0.09 100 1014.2
20260509222504 54 237 0.0 2.0 0.00 0.09 0.09 100 1014.5
20260509222004 54 269 0.0 1.0 0.00 0.09 0.09 100 1014.3
20260509221504 54 279 0.0 1.0 0.00 0.09 0.09 100 1014.2
20260509221004 54 293 0.0 1.0 0.00 0.09 0.09 100 1013.9
20260509220504 53 0 0.0 0.0 0.00 0.09 0.09 100 1014.0
20260509220004 53 223 0.0 1.0 0.00 0.09 0.09 100 1014.0
20260509215525 53 223 0.0 1.0 0.00 0.09 0.09 100 1013.9
20260509215004 53 0 0.0 0.0 0.00 0.09 0.09 100 1014.0
20260509214525 53 0 0.0 0.0 0.00 0.09 0.09 100 1014.2
20260509214004 54 223 0.0 1.0 0.00 0.09 0.09 100 1014.1
20260509213504 54 225 0.0 1.0 0.00 0.09 0.09 100 1013.9
20260509213004 54 227 0.0 1.0 0.00 0.09 0.09 100 1014.0
20260509212504 54 0 0.0 0.0 0.00 0.09 0.09 100 1014.1
20260509212025 54 0 0.0 0.0 0.00 0.09 0.09 100 1013.7
20260509211504 54 0 0.0 0.0 0.00 0.09 0.09 100 1013.9
20260509211004 53 0 0.0 0.0 0.00 0.09 0.09 100 1014.0
20260509210504 54 0 0.0 0.0 0.00 0.09 0.09 100 1014.0
20260509210004 54 0 0.0 0.0 0.00 0.09 0.09 100 1014.0
20260509205504 53 225 0.0 1.0 0.00 0.09 0.09 100 1014.0
20260509205004 53 225 0.0 1.0 0.00 0.09 0.09 100 1013.9
20260509204504 54 219 0.0 1.0 0.00 0.09 0.09 100 1013.8
20260509204004 54 219 0.0 1.0 0.00 0.09 0.09 100 1013.9
20260509203504 54 0 0.0 0.0 0.00 0.09 0.09 100 1013.7
20260509203004 54 0 0.0 0.0 0.00 0.09 0.09 100 1013.7
20260509202525 54 312 0.0 1.0 0.00 0.09 0.09 100 1013.6
20260509202025 54 297 0.0 1.0 0.00 0.09 0.09 100 1013.6
20260509201504 54 0 0.0 0.0 0.00 0.09 0.09 100 1013.6
20260509201004 54 0 0.0 0.0 0.00 0.09 0.09 100 1013.5
20260509200525 54 235 0.0 1.0 0.00 0.09 0.09 100 1013.3
20260509200004 54 231 0.0 1.0 0.00 0.09 0.09 100 1013.3
20260509195504 54 231 0.0 1.0 0.00 0.09 0.09 100 1013.0
20260509195004 54 0 0.0 0.0 0.00 0.09 0.09 100 1013.2
20260509194504 54 0 0.0 0.0 0.00 0.09 0.09 100 1013.0
20260509194025 54 0 0.0 0.0 0.00 0.09 0.09 100 1013.1
20260509193504 54 0 0.0 0.0 0.00 0.09 0.09 100 1013.1
20260509193004 54 243 0.0 1.0 0.00 0.09 0.09 100 1012.9
20260509192504 54 235 0.0 1.0 0.00 0.09 0.09 100 1012.7
20260509192025 54 219 0.0 1.0 0.00 0.09 0.09 100 1012.9
20260509191525 54 0 0.0 0.0 0.00 0.09 0.09 100 1012.6
20260509191004 54 0 0.0 0.0 0.00 0.09 0.09 100 1012.7
20260509190504 54 0 0.0 0.0 0.00 0.09 0.09 100 1012.5
20260509190004 54 213 0.0 1.0 0.00 0.09 0.09 100 1012.5
20260509185504 54 208 0.0 1.0 0.00 0.09 0.09 100 1012.4
20260509185004 54 221 0.0 1.0 0.00 0.09 0.09 100 1012.5
20260509184504 54 227 0.0 1.0 0.00 0.09 0.09 100 1012.4
20260509184004 54 224 0.0 1.0 0.00 0.09 0.09 100 1012.5
20260509183504 54 223 0.0 1.0 0.00 0.09 0.09 100 1012.4
20260509183004 54 222 0.0 1.0 0.00 0.09 0.09 100 1012.2
20260509182504 54 214 0.0 1.0 0.01 0.09 0.09 100 1012.2
20260509182004 54 227 0.0 2.0 0.01 0.09 0.09 100 1012.3
20260509181504 54 230 0.0 2.0 0.01 0.09 0.09 100 1012.1
20260509181004 54 200 0.0 2.0 0.01 0.09 0.09 100 1012.0
20260509180504 54 186 0.0 2.0 0.01 0.09 0.09 100 1012.1
20260509180004 54 224 0.0 2.0 0.01 0.09 0.09 100 1011.7
20260509175525 54 179 0.0 2.0 0.03 0.09 0.09 100 1011.8
20260509175025 54 138 0.0 2.0 0.06 0.09 0.09 100 1011.7
20260509174504 54 164 0.0 2.0 0.07 0.09 0.09 100 1011.7
20260509174004 54 179 0.0 1.0 0.08 0.09 0.09 100 1011.7
20260509173504 54 178 0.0 1.0 0.09 0.09 0.09 100 1011.7
20260509173004 54 184 0.0 2.0 0.09 0.09 0.09 100 1011.8
20260509172504 54 167 0.0 2.0 0.08 0.08 0.08 100 1011.7
20260509172004 54 212 0.0 2.0 0.08 0.08 0.08 100 1011.5
20260509171504 55 285 1.0 4.0 0.08 0.08 0.08 100 1011.6
20260509171004 55 274 2.0 4.0 0.08 0.08 0.08 97 1011.7
20260509170504 54 273 3.0 8.0 0.08 0.08 0.08 97 1011.7
20260509170004 55 268 3.0 8.0 0.08 0.08 0.08 96 1011.7
20260509165504 55 270 3.0 6.0 0.06 0.06 0.06 95 1011.7
20260509165004 55 272 3.0 7.0 0.03 0.03 0.03 92 1011.8
20260509164504 56 257 3.0 7.0 0.02 0.02 0.02 88 1011.7
20260509164004 58 252 2.0 6.0 0.01 0.01 0.01 86 1011.9
20260509163504 60 248 1.0 3.0 0.00 0.00 0.00 84 1011.8
20260509163004 60 251 1.0 4.0 0.00 0.00 0.00 83 1011.6
20260509162504 60 251 2.0 6.0 0.00 0.00 0.00 81 1011.7
20260509162004 61 273 2.0 6.0 0.00 0.00 0.00 78 1011.8
20260509161004 62 270 2.0 6.0 0.00 0.00 0.00 75 1011.9
20260509160504 62 275 2.0 6.0 0.00 0.00 0.00 72 1011.9
20260509160025 62 269 1.0 6.0 0.00 0.00 0.00 73 1012.1
20260509155658 62 254 1.0 6.0 0.00 0.00 0.00 72 1012.1